WA9NNN-10 Weather Reports


Display with metric or nautical units.
time (UTC)temp
F
wind
direction
speed
MPH
gust
MPH
rain 1hr
in
rain 24hr
in
rain mn
in
humidity
%
barometer
mb
20260902230330 95 230 4.0 5.0 0.00 0.00 0.00 55 1012.2
20260902225831 95 212 8.0 5.0 0.00 0.00 0.00 55 1012.1
20260902224830 96 249 3.0 5.0 0.00 0.00 0.00 53 1012.1
20260902223831 97 227 7.0 4.0 0.00 0.00 0.00 52 1012.1
20260902223330 97 213 4.0 3.0 0.00 0.00 0.00 52 1012.1
20260902222831 97 271 1.0 2.0 0.00 0.00 0.00 51 1012.2
20260902222330 97 266 1.0 2.0 0.00 0.00 0.00 51 1012.2
20260902221830 97 221 3.0 3.0 0.00 0.00 0.00 50 1012.3
20260902220831 97 215 4.0 2.0 0.00 0.00 0.00 50 1012.3
20260902220330 97 237 2.0 4.0 0.00 0.00 0.00 50 1012.3
20260902215330 97 215 5.0 4.0 0.00 0.00 0.00 48 1012.3
20260902214831 97 213 4.0 3.0 0.00 0.00 0.00 49 1012.4
20260902214331 97 206 1.0 3.0 0.00 0.00 0.00 50 1012.3
20260902213830 97 224 3.0 4.0 0.00 0.00 0.00 49 1012.4
20260902213330 97 301 4.0 4.0 0.00 0.00 0.00 48 1012.4
20260902212330 97 197 5.0 5.0 0.00 0.00 0.00 47 1012.4
20260902211830 97 245 3.0 5.0 0.00 0.00 0.00 48 1012.4
20260902210331 98 231 7.0 4.0 0.00 0.00 0.00 46 1012.4
20260902205331 98 225 2.0 3.0 0.00 0.00 0.00 46 1012.7
20260902204331 98 229 3.0 3.0 0.00 0.00 0.00 45 1012.7
20260902203331 99 230 5.0 5.0 0.00 0.00 0.00 45 1012.7
20260902202331 100 186 10.0 4.0 0.00 0.00 0.00 47 1012.7
20260902201331 100 293 9.0 3.0 0.00 0.00 0.00 44 1012.8
20260902200331 100 226 4.0 3.0 0.00 0.00 0.00 45 1012.8
20260902195831 100 238 2.0 3.0 0.00 0.00 0.00 45 1012.9
20260902192331 101 203 8.0 4.0 0.00 0.00 0.00 45 1013.1
20260902190331 99 193 4.0 5.0 0.00 0.00 0.00 46 1013.2
20260902185831 99 210 5.0 5.0 0.00 0.00 0.00 46 1013.3
20260902185331 99 173 11.0 4.0 0.00 0.00 0.00 46 1013.3
20260902184831 100 197 7.0 4.0 0.00 0.00 0.00 45 1013.2
20260902184331 101 226 6.0 5.0 0.00 0.00 0.00 43 1013.2
20260902183831 102 214 6.0 4.0 0.00 0.00 0.00 43 1013.2
20260902183331 102 184 7.0 4.0 0.00 0.00 0.00 45 1013.3
20260902182831 101 213 4.0 4.0 0.00 0.00 0.00 44 1013.4
20260902182331 101 169 3.0 4.0 0.00 0.00 0.00 45 1013.4
20260902181831 101 225 5.0 4.0 0.00 0.00 0.00 45 1013.5
20260902181331 101 169 5.0 4.0 0.00 0.00 0.00 45 1013.5
20260902180831 102 170 3.0 4.0 0.00 0.00 0.00 44 1013.5
20260902180331 102 138 4.0 4.0 0.00 0.00 0.00 44 1013.4
20260902175832 102 189 5.0 5.0 0.00 0.00 0.00 44 1013.4
20260902175331 101 236 6.0 5.0 0.00 0.00 0.00 44 1013.5
20260902174831 102 204 4.0 4.0 0.00 0.00 0.00 43 1013.6
20260902174331 102 221 5.0 4.0 0.00 0.00 0.00 44 1013.7
20260902173832 102 203 3.0 3.0 0.00 0.00 0.00 46 1013.7
20260902173331 102 224 6.0 3.0 0.00 0.00 0.00 45 1013.8
20260902172831 101 225 4.0 3.0 0.00 0.00 0.00 46 1013.7
20260902172331 101 162 2.0 3.0 0.00 0.00 0.00 46 1013.7
20260902171832 100 228 2.0 3.0 0.00 0.00 0.00 47 1013.8
20260902171331 100 229 2.0 4.0 0.00 0.00 0.00 46 1013.9
20260902170832 100 179 2.0 3.0 0.00 0.00 0.00 48 1014.0
20260902170331 100 210 4.0 3.0 0.00 0.00 0.00 47 1014.0
20260902165831 100 198 7.0 3.0 0.00 0.00 0.00 48 1014.0
20260902165331 99 241 1.0 3.0 0.00 0.00 0.00 49 1014.1
20260902164831 99 300 2.0 2.0 0.00 0.00 0.00 49 1014.2
20260902164330 99 210 2.0 2.0 0.00 0.00 0.00 49 1014.2
20260902163831 98 294 1.0 3.0 0.00 0.00 0.00 50 1014.2
20260902163331 98 221 5.0 4.0 0.00 0.00 0.00 50 1014.2
20260902162832 98 217 3.0 4.0 0.00 0.00 0.00 50 1014.2
20260902162331 98 175 4.0 3.0 0.00 0.00 0.00 51 1014.2
20260902161831 98 229 1.0 3.0 0.00 0.00 0.00 51 1014.3
20260902161330 97 227 1.0 3.0 0.00 0.00 0.00 52 1014.3
20260902160831 97 198 1.0 3.0 0.00 0.00 0.00 53 1014.3
20260902160331 96 208 2.0 2.0 0.00 0.00 0.00 52 1014.3
20260902155831 96 178 1.0 2.0 0.00 0.00 0.00 54 1014.3
20260902155330 95 306 1.0 2.0 0.00 0.00 0.00 55 1014.5
20260902154831 95 293 3.0 2.0 0.00 0.00 0.00 55 1014.6
20260902154331 95 137 1.0 2.0 0.00 0.00 0.00 56 1014.6
20260902153831 94 287 2.0 2.0 0.00 0.00 0.00 56 1014.7
20260902153330 94 298 1.0 2.0 0.00 0.00 0.00 56 1014.6
20260902152831 94 235 1.0 2.0 0.00 0.00 0.00 57 1014.6
20260902152331 93 218 1.0 2.0 0.00 0.00 0.00 58 1014.5
20260902134831 85 221 1.0 4.0 0.00 0.00 0.00 68 1014.5
20260902132330 83 198 2.0 1.0 0.00 0.00 0.00 72 1014.8
20260902131831 83 200 1.0 2.0 0.00 0.00 0.00 72 1014.9
20260902131330 83 195 2.0 3.0 0.00 0.00 0.00 72 1014.6
20260902130831 82 224 3.0 2.0 0.00 0.00 0.00 72 1014.6
20260902130331 82 203 3.0 2.0 0.00 0.00 0.00 72 1014.6
20260902125831 82 219 1.0 2.0 0.00 0.00 0.00 72 1014.6
20260902124830 82 231 1.0 2.0 0.00 0.00 0.00 72 1014.8
20260902124330 82 218 3.0 2.0 0.00 0.00 0.00 73 1014.8
20260902122330 81 217 2.0 3.0 0.00 0.00 0.00 73 1014.8
20260902120330 81 221 2.0 2.0 0.00 0.00 0.00 74 1014.8
20260902115831 81 221 3.0 2.0 0.00 0.00 0.00 74 1014.7
20260902115330 81 217 3.0 2.0 0.00 0.00 0.00 74 1014.6
20260902113330 81 190 2.0 2.0 0.00 0.00 0.00 74 1014.6
20260902112831 81 146 2.0 2.0 0.00 0.00 0.00 74 1014.7
20260902112330 81 204 2.0 2.0 0.00 0.00 0.00 74 1014.7
20260902111831 81 150 1.0 3.0 0.00 0.00 0.00 74 1014.6
20260902111330 81 206 1.0 3.0 0.00 0.00 0.00 74 1014.7
20260902110330 81 210 3.0 2.0 0.00 0.00 0.00 73 1014.6
20260902105830 81 207 2.0 2.0 0.00 0.00 0.00 73 1014.5
20260902105330 81 188 2.0 3.0 0.00 0.00 0.00 73 1014.6
20260902104330 81 220 4.0 3.0 0.00 0.00 0.00 73 1014.5
20260902103831 81 220 2.0 2.0 0.00 0.00 0.00 73 1014.5
20260902103331 81 215 3.0 2.0 0.00 0.00 0.00 73 1014.5
20260902102830 81 185 1.0 2.0 0.00 0.00 0.00 73 1014.5
20260902101830 81 234 2.0 2.0 0.00 0.00 0.00 73 1014.6
20260902101330 81 0 0.0 3.0 0.00 0.00 0.00 73 1014.6
20260902095831 81 219 2.0 3.0 0.00 0.00 0.00 73 1014.5
20260902095332 81 200 3.0 3.0 0.00 0.00 0.00 73 1014.5
20260902094330 81 213 4.0 1.0 0.00 0.00 0.00 74 1014.6
20260902092831 81 213 2.0 3.0 0.00 0.00 0.00 75 1014.4
20260902091831 81 214 4.0 3.0 0.00 0.00 0.00 75 1014.3
20260902090831 81 212 3.0 2.0 0.00 0.00 0.00 76 1014.3
20260902090330 81 226 2.0 2.0 0.00 0.00 0.00 76 1014.3
20260902085330 81 191 1.0 2.0 0.00 0.00 0.00 76 1014.4
20260902084330 81 214 2.0 2.0 0.00 0.00 0.00 76 1014.4
20260902083330 81 188 1.0 2.0 0.00 0.00 0.00 76 1014.3
20260902082831 81 193 3.0 2.0 0.00 0.00 0.00 76 1014.2
20260902082330 81 205 2.0 2.0 0.00 0.00 0.00 76 1014.2
20260902080831 82 207 2.0 2.0 0.00 0.00 0.00 76 1014.1
20260902074831 82 187 2.0 2.0 0.00 0.00 0.00 76 1014.2
20260902074330 82 182 1.0 2.0 0.00 0.00 0.00 75 1014.2
20260902073831 82 217 3.0 2.0 0.00 0.00 0.00 75 1014.2
20260902073330 82 187 2.0 2.0 0.00 0.00 0.00 75 1014.2
20260902072330 82 193 2.0 1.0 0.00 0.00 0.00 76 1014.1
20260902071830 82 208 1.0 2.0 0.00 0.00 0.00 76 1014.1
20260902070909 81 201 2.0 2.0 0.00 0.00 0.00 76 1014.0
20260902065831 81 189 2.0 1.0 0.00 0.00 0.00 77 1014.1
20260902065330 81 218 2.0 1.0 0.00 0.00 0.00 77 1014.2
20260902064831 82 0 0.0 2.0 0.00 0.00 0.00 77 1014.3
20260902064330 82 223 2.0 2.0 0.00 0.00 0.00 77 1014.2
20260902061830 82 0 0.0 1.0 0.00 0.00 0.00 76 1014.2
20260902061331 83 205 1.0 1.0 0.00 0.00 0.00 76 1014.2
20260902060830 83 0 0.0 1.0 0.00 0.00 0.00 75 1014.2
20260902055830 83 231 2.0 2.0 0.00 0.00 0.00 75 1014.1
20260902055332 83 202 1.0 2.0 0.00 0.00 0.00 75 1014.0
20260902054831 83 213 2.0 2.0 0.00 0.00 0.00 74 1014.0
20260902053831 83 215 2.0 2.0 0.00 0.00 0.00 74 1014.1
20260902053331 84 217 1.0 2.0 0.00 0.00 0.00 74 1014.1
20260902052832 84 219 2.0 2.0 0.00 0.00 0.00 73 1014.2
20260902052330 84 189 2.0 2.0 0.00 0.00 0.00 73 1014.1
20260902045831 84 203 4.0 3.0 0.00 0.00 0.00 73 1014.1
20260902045331 84 178 3.0 3.0 0.00 0.00 0.00 72 1014.0
20260902044831 85 224 1.0 3.0 0.00 0.00 0.00 72 1014.0
20260902043831 85 214 1.0 2.0 0.00 0.00 0.00 72 1013.9
20260902043331 85 231 2.0 2.0 0.00 0.00 0.00 72 1014.0
20260902042831 85 209 1.0 2.0 0.00 0.00 0.00 71 1014.0
20260902042331 85 218 2.0 3.0 0.00 0.00 0.00 71 1014.0
20260902041832 85 224 4.0 3.0 0.00 0.00 0.00 71 1014.1
20260902041331 85 212 1.0 3.0 0.00 0.00 0.00 71 1014.1
20260902040331 85 148 3.0 2.0 0.00 0.00 0.00 71 1014.0
20260902035330 86 204 1.0 3.0 0.00 0.00 0.00 70 1014.2
20260902034831 86 198 1.0 3.0 0.00 0.00 0.00 70 1014.2
20260902033831 86 219 2.0 2.0 0.00 0.00 0.00 70 1014.2
20260902033331 86 206 3.0 2.0 0.00 0.00 0.00 70 1014.3
20260902032831 86 199 2.0 3.0 0.00 0.00 0.00 69 1014.3
20260902032331 86 240 4.0 2.0 0.00 0.00 0.00 69 1014.4
20260902031332 87 214 3.0 3.0 0.00 0.00 0.00 69 1014.2
20260902030831 87 210 1.0 3.0 0.00 0.00 0.00 69 1014.2
20260902030331 87 223 4.0 3.0 0.00 0.00 0.00 69 1014.2
20260902024331 87 215 1.0 3.0 0.00 0.00 0.00 68 1014.2
20260902023831 87 182 4.0 3.0 0.00 0.00 0.00 68 1014.1
20260902023332 88 217 4.0 3.0 0.00 0.00 0.00 68 1014.0
20260902022330 88 221 2.0 4.0 0.00 0.00 0.00 68 1014.1
20260902021831 88 208 3.0 4.0 0.00 0.00 0.00 68 1014.1
20260902021330 88 209 4.0 4.0 0.00 0.00 0.00 68 1014.1
20260902015331 89 228 3.0 3.0 0.00 0.00 0.00 67 1013.9
20260902014331 89 201 3.0 3.0 0.00 0.00 0.00 67 1013.9
20260902010330 90 193 2.0 3.0 0.00 0.00 0.00 63 1013.4
20260902003330 91 223 1.0 3.0 0.00 0.00 0.00 62 1013.1
20260902002831 91 198 4.0 3.0 0.00 0.00 0.00 61 1013.2
20260902001831 92 176 3.0 4.0 0.00 0.00 0.00 61 1013.2
20260902001333 92 229 5.0 4.0 0.00 0.00 0.00 61 1013.3
20260902000831 92 199 4.0 4.0 0.00 0.00 0.00 61 1013.2
20260902000331 92 220 4.0 3.0 0.00 0.00 0.00 61 1013.3
20260901235332 93 176 2.0 4.0 0.00 0.00 0.00 61 1013.4
20260901234831 93 208 3.0 4.0 0.00 0.00 0.00 60 1013.4
20260901234330 93 209 5.0 3.0 0.00 0.00 0.00 60 1013.3
20260901233831 93 193 3.0 4.0 0.00 0.00 0.00 60 1013.3
20260901233331 93 233 3.0 4.0 0.00 0.00 0.00 60 1013.3
20260901232831 93 190 6.0 4.0 0.00 0.00 0.00 59 1013.4
20260901232330 93 236 2.0 4.0 0.00 0.00 0.00 59 1013.5